{"data":{"norad_id":49396,"epoch":"2026-09-20T21:34:00.149376Z","epoch_age_seconds":72820,"freshness":"FRESH","line1":"1 49396U 21102B   26263.89861284  .00001116  00000+0  72792-4 0  9991","line2":"2 49396  97.3627 289.6537 0011026 330.8590  29.2023 15.09785639267168","mean_motion":15.09785639,"eccentricity":0.0011026,"inclination_deg":97.3627,"raan_deg":289.6537,"arg_perigee_deg":330.859,"mean_anomaly_deg":29.2023,"bstar":7.2792e-5,"rev_number":26716,"period_min":95.377778328437,"perigee_km":529.22998803862,"apogee_km":544.47892720097,"semimajor_km":6914.9914576198,"source":"CELESTRAK","updated_at":"2026-09-21T09:00:08.078343Z"}}